Location: Unspecified
(48.7170°N, 0.0000°E)
Time: 05:47:51
(UTC+00:00)

ISS - Pass Details

Date: 28 May 2019
Orbit: 408 x 418 km, 51.6° (Epoch: 19 June)

Event Time Altitude Azimuth Distance (km) Brightness Sun altitude
Rises 22:05:18 0° 291° (WNW) 2,360 0.8 -15.4°
Reaches altitude 10° 22:07:24 10° 289° (WNW) 1,497 -0.3 -15.6°
Maximum altitude 22:10:44 68° 206° (SSW) 453 -3.8 -15.8°
Enters shadow 22:11:49 39° 135° (SE) 644 -3.3 -15.9°
